This demonstration page uses our WeatherBlox Daily Observations layout. Learn more.

41.55636, -103.73856

Hourly Observations for September 5, 2017

Temp ( °F °C ) Dew Point ( °F °C ) Humidity (%) Winds ( mph kmh ) Pressure ( in mb ) Visibility ( mi km ) Precip ( " mm )
12:53 am 00:53 Mostly Cloudy 55 12.8 43 6.1 64 64 NNW 7 11 30.3 1026 10 16.0934 0 0
1:53 am 01:53 Clear 51 10.6 42 5.6 71 71 NW 6 9 30.31 1026 10 16.0934 0 0
2:53 am 02:53 Mostly Cloudy 50 10 43 6.1 77 77 NNW 6 9 30.31 1026 10 16.0934 0 0
3:53 am 03:53 Cloudy 52 11.1 44 6.7 75 75 NW 5 7 30.32 1027 10 16.0934 0 0
4:53 am 04:53 Partly Cloudy 49 9.4 41 5 74 74 N 3 6 30.32 1027 10 16.0934 0 0
5:53 am 05:53 Mostly Cloudy 48 8.9 40 4.4 74 74 WNW 5 7 30.34 1028 10 16.0934 0 0
6:53 am 06:53 Mostly Cloudy 48 8.9 41 5 77 77 NNW 5 7 30.36 1028 10 16.0934 0 0
7:53 am 07:53 Cloudy 51 10.6 43 6.1 74 74 NW 5 7 30.36 1028 10 16.0934 0 0
8:53 am 08:53 Cloudy 57 13.9 34 1.1 42 42 WNW 3 6 30.36 1028 10 16.0934 0 0
9:53 am 09:53 Sunny 62 16.7 28 -2.2 28 28 Calm 30.34 1027 10 16.0934 0 0
10:53 am 10:53 Sunny 64 17.8 29 -1.7 27 27 Calm 30.33 1027 10 16.0934 0 0
11:53 am 11:53 Sunny 67 19.4 30 -1.1 25 25 VRB 6 9 30.3 1026 10 16.0934 0 0
12:53 pm 12:53 Sunny 68 20 32 0 26 26 S 6 9 30.27 1025 10 16.0934 0 0
1:53 pm 13:53 Sunny 73 22.8 32 0 22 22 VRB 5 7 30.25 1024 10 16.0934 0 0
2:53 pm 14:53 Sunny 74 23.3 30 -1.1 20 20 WNW 7 11 30.22 1023 10 16.0934 0 0
3:53 pm 15:53 Sunny 76 24.4 25 -3.9 15 15 NW 8 13 30.19 1023 10 16.0934 0 0
4:53 pm 16:53 Sunny 76 24.4 24 -4.4 14 14 VRB 3 6 30.18 1022 10 16.0934 0 0
5:53 pm 17:53 Sunny 75 23.9 25 -3.9 15 15 NNE 9 15 30.18 1022 10 16.0934 0 0
6:53 pm 18:53 Sunny 68 20 29 -1.7 23 23 NNE 7 11 30.19 1023 10 16.0934 0 0
7:53 pm 19:53 Clear 59 15 31 -0.6 35 35 E 7 11 30.23 1024 10 16.0934 0 0
8:53 pm 20:53 Clear 55 12.8 33 0.6 44 44 Calm 30.24 1024 10 16.0934 0 0
9:53 pm 21:53 Clear 53 11.7 32 0 45 45 Calm 30.24 1024 10 16.0934 0 0
10:53 pm 22:53 Clear 48 8.9 35 1.7 61 61 ENE 6 9 30.25 1024 10 16.0934 0 0
11:53 pm 23:53 Clear 49 9.4 32 0 52 52 E 5 7 30.24 1024 10 16.0934 0 0

Powered by AerisWeather